Weather in Shevchenkovo

Ukraine / Odesa District     45°33′18″N   29°19′58″E
temp.,
°C
wind,
m/s
gust,
m/s
humid.,
%
clouds,
%
prec.,
mm/h
press.,
hPa
HPBL,
m
13 may, thu
thu1300:00+9ese227859 0.0 101234
03:00+11ese2570100 0.0 1011168
06:00+11ese3771100 0.0 1010240
09:00+12ese3577100 0.8 1010459
12:00+14se5974100 0.8 1010633
15:00+21s794738 0.8 10081674
18:00+19sse674954 0.0 1007968
21:00+13se4873100 0.0 1007170
14 may, fri
fri1400:00+12se498044 0.0 1007236
03:00+13ese4588100 0.1 1006162
06:00+12ssw399454 0.0 1006225
09:00+17wsw58700 0.0 1008661
12:00+21wsw78524 0.0 10081455
15:00+23wsw78422 0.0 10082211
18:00+20sw5952100 0.0 1009377
21:00+17s3565100 0.0 101084
15 may, sat
sat1500:00+15ssw4680100 0.0 101089
03:00+14sw3371100 0.0 101139
06:00+14ssw337841 0.0 101136
09:00+20wsw23570 0.0 1012439
12:00+24sw344097 0.0 10111999
15:00+24sse444199 0.0 10101302
18:00+24se554372 0.0 10091229
21:00+16se4777100 0.0 1010146
16 may, sun
sun1600:00+14ese3489100 0.0 101076
03:00+14ese3590100 0.0 100998
06:00+14e2290100 0.0 100933
09:00+19e3564100 0.0 1009518
12:00+22e4449100 0.0 10081222
15:00+21e5654100 0.0 1008745
18:00+16e3480100 0.1 1006183
21:00+15wsw228594 0.3 100522
17 may, mon
mon1700:00+14wsw338333 0.0 100538
03:00+15nw2284100 0.0 100432
06:00+15w238598 0.0 100454
09:00+19wsw456783 0.0 1005576
12:00+23w56475 0.0 10051539
15:00+25wsw663963 0.0 10052468
18:00+22w2253100 0.0 1006125
21:00+18sw33643 0.0 100823